SB KEPS @ AMSAT $ORB14299.O
Orbital Elements 14299.OSCAR
HR AMSAT ORBITAL ELEMENTS FOR OSCAR SATELLITES
FROM WA5QGD FORT WORTH,TX October 26, 2014
BID: ORB14299.O
TO ALL RADIO AMATEURS BT
Satellite: AO-07
Catalog number: 07530
Epoch time: 14299.17494338
Element set: 104
Inclination: 101.4898 deg
RA of node: 276.7686 deg
Eccentricity: 0.0012254
Arg of perigee: 040.6143 deg
Mean anomaly: 024.1809 deg
Mean motion: 12.53608102 rev/day
Decay rate: -4.0e-08 rev/day^2
Epoch rev: 82793
Checksum: 294
Satellite: FO-29
Catalog number: 24278
Epoch time: 14298.82604348
Element set: 502
Inclination: 098.5164 deg
RA of node: 294.6608 deg
Eccentricity: 0.0349649
Arg of perigee: 318.7966 deg
Mean anomaly: 160.2538 deg
Mean motion: 13.53033392 rev/day
Decay rate: 5.8e-07 rev/day^2
Epoch rev: 89833
Checksum: 355
Satellite: SO-33
Catalog number: 25509
Epoch time: 14298.79221262
Element set: 868
Inclination: 031.4322 deg
RA of node: 140.2994 deg
Eccentricity: 0.0349179
Arg of perigee: 178.7729 deg
Mean anomaly: 278.5942 deg
Mean motion: 14.29704829 rev/day
Decay rate: 1.084e-05 rev/day^2
Epoch rev: 83585
Checksum: 356
Satellite: RS-22
Catalog number: 27939
Epoch time: 14299.49190282
Element set: 985
Inclination: 097.8217 deg
RA of node: 107.2176 deg
Eccentricity: 0.0014068
Arg of perigee: 054.7592 deg
Mean anomaly: 009.7357 deg
Mean motion: 14.65442472 rev/day
Decay rate: 1.689e-05 rev/day^2
Epoch rev: 59195
Checksum: 357
Satellite: HO-68
Catalog number: 36122
Epoch time: 14299.15964447
Element set: 65
Inclination: 100.2327 deg
RA of node: 346.9527 deg
Eccentricity: 0.0006894
Arg of perigee: 298.1882 deg
Mean anomaly: 131.4460 deg
Mean motion: 13.16320347 rev/day
Decay rate: -8.9e-07 rev/day^2
Epoch rev: 23366
Checksum: 318
Satellite: AO-73
Catalog number: 39444
Epoch time: 14298.70401733
Element set: 292
Inclination: 097.7621 deg
RA of node: 004.8630 deg
Eccentricity: 0.0061699
Arg of perigee: 178.0948 deg
Mean anomaly: 182.0511 deg
Mean motion: 14.78835094 rev/day
Decay rate: 5.804e-05 rev/day^2
Epoch rev: 4875
Checksum: 334
Satellite: EO-79
Catalog number: 40025
Epoch time: 14299.24038714
Element set: 378
Inclination: 097.9690 deg
RA of node: 194.0902 deg
Eccentricity: 0.0011821
Arg of perigee: 228.3278 deg
Mean anomaly: 131.6944 deg
Mean motion: 14.85705617 rev/day
Decay rate: 3.947e-05 rev/day^2
Epoch rev: 1904
Checksum: 327
/EX
SB KEPS @ AMSAT $ORB14299.D
Orbital Elements 14299.MICROS
HR AMSAT ORBITAL ELEMENTS FOR THE MICROSATS
FROM WA5QGD FORT WORTH,TX October 26, 2014
BID: ORB14299.D
TO ALL RADIO AMATEURS BT
Satellite: UO-11
Catalog number: 14781
Epoch time: 14299.11006314
Element set: 646
Inclination: 097.8364 deg
RA of node: 356.5853 deg
Eccentricity: 0.0010118
Arg of perigee: 113.6316 deg
Mean anomaly: 246.5960 deg
Mean motion: 14.81835123 rev/day
Decay rate: 1.446e-05 rev/day^2
Epoch rev: 64735
Checksum: 301
Satellite: AO-16
Catalog number: 20439
Epoch time: 14298.79178917
Element set: 157
Inclination: 098.5175 deg
RA of node: 233.7245 deg
Eccentricity: 0.0011912
Arg of perigee: 130.4922 deg
Mean anomaly: 259.2724 deg
Mean motion: 14.32410516 rev/day
Decay rate: 4.18e-06 rev/day^2
Epoch rev: 29318
Checksum: 311
Satellite: LO-19
Catalog number: 20442
Epoch time: 14298.82359625
Element set: 92
Inclination: 098.4886 deg
RA of node: 234.0174 deg
Eccentricity: 0.0012959
Arg of perigee: 120.2512 deg
Mean anomaly: 239.9957 deg
Mean motion: 14.32609693 rev/day
Decay rate: 4.08e-06 rev/day^2
Epoch rev: 29338
Checksum: 334
Satellite: AO-27
Catalog number: 22825
Epoch time: 14299.41866556
Element set: 805
Inclination: 098.6773 deg
RA of node: 244.8855 deg
Eccentricity: 0.0007283
Arg of perigee: 272.3621 deg
Mean anomaly: 200.3630 deg
Mean motion: 14.29767660 rev/day
Decay rate: 3.18e-06 rev/day^2
Epoch rev: 9953
Checksum: 336
Satellite: IO-26
Catalog number: 22826
Epoch time: 14299.08449416
Element set: 562
Inclination: 098.6715 deg
RA of node: 244.7519 deg
Eccentricity: 0.0007868
Arg of perigee: 264.8637 deg
Mean anomaly: 095.1648 deg
Mean motion: 14.30072601 rev/day
Decay rate: 3.57e-06 rev/day^2
Epoch rev: 9962
Checksum: 343
Satellite: GO-32
Catalog number: 25397
Epoch time: 14298.82699012
Element set: 483
Inclination: 098.4869 deg
RA of node: 252.0485 deg
Eccentricity: 0.0000196
Arg of perigee: 350.2004 deg
Mean anomaly: 039.7255 deg
Mean motion: 14.23474172 rev/day
Decay rate: 2.18e-06 rev/day^2
Epoch rev: 84645
Checksum: 321
Satellite: NO-44
Catalog number: 26931
Epoch time: 14298.82153617
Element set: 737
Inclination: 067.0529 deg
RA of node: 061.5774 deg
Eccentricity: 0.0007574
Arg of perigee: 273.7831 deg
Mean anomaly: 086.2404 deg
Mean motion: 14.30174474 rev/day
Decay rate: 4.38e-06 rev/day^2
Epoch rev: 68228
Checksum: 326
Satellite: SO-50
Catalog number: 27607
Epoch time: 14299.30993339
Element set: 556
Inclination: 064.5563 deg
RA of node: 192.5666 deg
Eccentricity: 0.0063121
Arg of perigee: 336.5505 deg
Mean anomaly: 023.2720 deg
Mean motion: 14.74053823 rev/day
Decay rate: 2.262e-05 rev/day^2
Epoch rev: 63680
Checksum: 308
Satellite: CO-55
Catalog number: 27844
Epoch time: 14298.97274527
Element set: 55
Inclination: 098.6989 deg
RA of node: 305.8676 deg
Eccentricity: 0.0008754
Arg of perigee: 254.7432 deg
Mean anomaly: 135.2083 deg
Mean motion: 14.21592932 rev/day
Decay rate: 4.94e-06 rev/day^2
Epoch rev: 58716
Checksum: 361
Satellite: CO-57
Catalog number: 27848
Epoch time: 14299.29528019
Element set: 999
Inclination: 098.7085 deg
RA of node: 305.9682 deg
Eccentricity: 0.0008613
Arg of perigee: 261.3300 deg
Mean anomaly: 163.8995 deg
Mean motion: 14.21269360 rev/day
Decay rate: 4.34e-06 rev/day^2
Epoch rev: 58712
Checksum: 351
Satellite: AO-51
Catalog number: 28375
Epoch time: 14298.84803174
Element set: 977
Inclination: 098.2651 deg
RA of node: 241.3959 deg
Eccentricity: 0.0081972
Arg of perigee: 318.0828 deg
Mean anomaly: 041.4105 deg
Mean motion: 14.41470846 rev/day
Decay rate: 7.82e-06 rev/day^2
Epoch rev: 54272
Checksum: 335
Satellite: CP3
Catalog number: 31129
Epoch time: 14298.78388955
Element set: 883
Inclination: 097.9506 deg
RA of node: 270.2720 deg
Eccentricity: 0.0096964
Arg of perigee: 324.9179 deg
Mean anomaly: 152.6729 deg
Mean motion: 14.55021794 rev/day
Decay rate: 3.640e-05 rev/day^2
Epoch rev: 39902
Checksum: 354
Satellite: CO-65
Catalog number: 32785
Epoch time: 14298.77556986
Element set: 99
Inclination: 097.6829 deg
RA of node: 345.6962 deg
Eccentricity: 0.0015119
Arg of perigee: 117.6734 deg
Mean anomaly: 307.1654 deg
Mean motion: 14.85732938 rev/day
Decay rate: 3.703e-05 rev/day^2
Epoch rev: 35141
Checksum: 365
Satellite: PRISM
Catalog number: 33493
Epoch time: 14299.46351529
Element set: 430
Inclination: 098.2547 deg
RA of node: 120.8347 deg
Eccentricity: 0.0017772
Arg of perigee: 019.0008 deg
Mean anomaly: 065.1729 deg
Mean motion: 14.90473537 rev/day
Decay rate: 9.948e-05 rev/day^2
Epoch rev: 31172
Checksum: 316
Satellite: SOHLA-1
Catalog number: 33496
Epoch time: 14298.81813411
Element set: 498
Inclination: 098.1856 deg
RA of node: 060.1980 deg
Eccentricity: 0.0006613
Arg of perigee: 177.8414 deg
Mean anomaly: 335.1344 deg
Mean motion: 14.70964063 rev/day
Decay rate: 1.391e-05 rev/day^2
Epoch rev: 30871
Checksum: 312
Satellite: TISAT-1
Catalog number: 36799
Epoch time: 14299.26896731
Element set: 675
Inclination: 098.0187 deg
RA of node: 032.3000 deg
Eccentricity: 0.0012515
Arg of perigee: 251.6856 deg
Mean anomaly: 168.6818 deg
Mean motion: 14.86409691 rev/day
Decay rate: 7.775e-05 rev/day^2
Epoch rev: 23218
Checksum: 345
Satellite: STUDSAT
Catalog number: 36801
Epoch time: 14298.81103924
Element set: 917
Inclination: 098.0440 deg
RA of node: 042.6745 deg
Eccentricity: 0.0006644
Arg of perigee: 215.8117 deg
Mean anomaly: 304.6709 deg
Mean motion: 15.00024124 rev/day
Decay rate: 3.4983e-04 rev/day^2
Epoch rev: 23268
Checksum: 288
Satellite: ALMASAT-1
Catalog number: 38078
Epoch time: 14299.48137910
Element set: 194
Inclination: 069.4658 deg
RA of node: 100.9679 deg
Eccentricity: 0.0566888
Arg of perigee: 216.9946 deg
Mean anomaly: 213.0369 deg
Mean motion: 14.57327421 rev/day
Decay rate: 6.6426e-04 rev/day^2
Epoch rev: 14071
Checksum: 352
Satellite: XATCOBEO
Catalog number: 38082
Epoch time: 14243.34478676
Element set: 563
Inclination: 069.3815 deg
RA of node: 097.0364 deg
Eccentricity: 0.0033293
Arg of perigee: 225.1799 deg
Mean anomaly: 135.4582 deg
Mean motion: 16.41261006 rev/day
Decay rate: 1.3583328e-01 rev/day^2
Epoch rev: 13623
Checksum: 317
Satellite: CUBEBUG-1
Catalog number: 39153
Epoch time: 14299.16496234
Element set: 598
Inclination: 098.0349 deg
RA of node: 019.1750 deg
Eccentricity: 0.0016544
Arg of perigee: 289.7011 deg
Mean anomaly: 070.2414 deg
Mean motion: 14.78118431 rev/day
Decay rate: 3.268e-05 rev/day^2
Epoch rev: 8089
Checksum: 317
Satellite: ESTCUBE-1
Catalog number: 39161
Epoch time: 14299.44666381
Element set: 605
Inclination: 098.0907 deg
RA of node: 019.3470 deg
Eccentricity: 0.0009341
Arg of perigee: 345.7614 deg
Mean anomaly: 014.3328 deg
Mean motion: 14.70315906 rev/day
Decay rate: 3.072e-05 rev/day^2
Epoch rev: 7887
Checksum: 307
Satellite: DUCHIFAT-1
Catalog number: 40021
Epoch time: 14299.29390987
Element set: 382
Inclination: 097.9680 deg
RA of node: 194.2028 deg
Eccentricity: 0.0012308
Arg of perigee: 226.6218 deg
Mean anomaly: 133.3998 deg
Mean motion: 14.85982444 rev/day
Decay rate: 5.573e-05 rev/day^2
Epoch rev: 1904
Checksum: 327
Satellite: NANOSATCBR1
Catalog number: 40024
Epoch time: 14299.23640838
Element set: 374
Inclination: 097.9655 deg
RA of node: 194.0976 deg
Eccentricity: 0.0011235
Arg of perigee: 226.0368 deg
Mean anomaly: 133.9942 deg
Mean motion: 14.85821010 rev/day
Decay rate: 5.001e-05 rev/day^2
Epoch rev: 1903
Checksum: 288
